Showing default

SECOR 7 (EGRS 7), 2411

Orbit data source: Space-Track

SECOR 7 (EGRS 7), 2411 is an American payload satellite in LEO that was launched on Fri, 19 Aug 1966 UTC via an ATLAS SLV-3 AGENA D launch vehicle from the Air Force Western Test Range (AFWTR). Payload-class satellites include a variety of spacecraft equipped with specific instruments for various scientific and technological missions. These include communications satellites like Starlink; space stations such as the ISS; scientific satellites like the Hubble; Earth observation satellites from companies like Planet Labs, Umbra, and HawkEye 360; GPS; miniature CubeSats for education and research; and military/defense satellites.

Loading next visibility...
Identifier
2411, 1966-077B
Orbit
LEO
Country
Flag of USUS
Related business
Manufacturer
ITT
Mission
Spacecraft
Bus & Motor
SECOR, Unknown motor
Mass
18 kg wet, 18 kg dry
Launch date (UTC)
1966-08-19 (60 years ago)
Launch vehicle
ATLAS SLV-3 AGENA D
Launch site
Air Force Western Test Range (AFWTR)
Object type
Payload
Rocket body
Debris
Shape & HBR
BOX, 1.1 m
Radar Cross Section
Medium (>0.1 m² and <1 m²)

Expand to show TLE details & history
Last TLE update: 14 hours ago

TLE from 14 hours ago
0 SECOR 7 (EGRS 7)
1 02411U 66077B   26255.02755406  .00000012  00000-0  50749-2 0  9993
2 02411  90.3256 278.4602 0010198 329.7184  30.3078  8.59615434884845
Epoch: 2026-09-12T00:39Z
TLE epoch observation values (Epoch: 2026-09-12T00:39:40.670Z)
Latitude
0.00002°
Longitude
-82.50171°
Altitude
3,681.392 km
Speed
6.298 km/s
True Right ascension
18h 33m 50s
True Declination
0° 00' 00"
Sunlit
Object was in daylight at epoch
Visualization orbit readout
Latitude
Unknown
Longitude
Unknown
Altitude
Unknown
Speed
Unknown
Apparent Right ascension
Unknown
Apparent Declination
Unknown
Sunlit
N/A
Visualization observer readout
Local Sidereal Time
06:58:00
Azimuth
Unknown
Elevation
Unknown
Doppler factor
Unknown
Orbital elements
Apogee altitude
3,696.149 km
Perigee altitude
3,675.622 km
Semi-major axis
10,064.023 km
Eccentricity
0.00102
Inclination
90.3256°
RAAN
278.4602°
Arg. of periapsis
329.7184°
True anomaly
30.36684°
Mean anomaly
30.3078°
Eccentric anomaly
30.33731°
Mean motion
2.14974 °/min
Orbital period
167.46 mins
BSTAR
0.0050749
Loading maneuver chart data...
Computing Atmospheric mass density...
Loading historical data...
Loading historical data...
Loading historical data...
Loading historical data...
Loading historical data...
Loading historical data...
Loading historical data...

Documentation

Showing up to 5 results
|